STARLINK-36862, 68003

Orbit data source: Space-Track

STARLINK-36862, 68003 is a payload satellite owned by SpaceX/Seattle (US) in LEO that was launched on Fri, 27 Feb 2026 UTC via an FALCON 9 launch vehicle from the Air Force Eastern Test Range (AFETR). Payload-class satellites include a variety of spacecraft equipped with specific instruments for various scientific and technological missions. These include communications satellites like Starlink; space stations such as the ISS; scientific satellites like the Hubble; Earth observation satellites from companies like Planet Labs, Umbra, and HawkEye 360; GPS; miniature CubeSats for education and research; and military/defense satellites.

Loading next visibility...
Identifier
68003, 2026-039T
Orbit
LEO
Country
Flag of USUS
Related business
Manufacturer
SpaceX/Seattle
Mission
Operational Commercial Communications
Bus & Motor
STARLINK V2MO, Unknown motor
Mass
575 kg wet, ~530 kg dry
Launch date (UTC)
2026-02-27 (4 months ago)
Launch vehicle
FALCON 9
Launch site
Air Force Eastern Test Range (AFETR)
Object type
Payload
Rocket body
Debris
Shape & HBR
Box + 2 Pan, 17.7 m
Radar Cross Section
36.964 m², Large (>1 m²)

Expand to show TLE details & history
Last TLE update: 2 days ago

TLE from 2 days ago
0 STARLINK-36862
1 68003U 26039T   26170.12047327  .00012501  00000-0  46272-3 0  9992
2 68003  43.0020 196.3038 0001584 268.7379  91.3291 15.27601080 17214
Epoch: 2026-06-19T02:53Z
TLE epoch observation values (Epoch: 2026-06-19T02:53:28.890Z)
Latitude
-0.00003°
Longitude
-114.42062°
Altitude
482.787 km
Speed
7.626 km/s
True Right ascension
13h 05m 12s
True Declination
0° 00' 00"
Sunlit
Object was in daylight at epoch
Visualization orbit readout
Latitude
Unknown
Longitude
Unknown
Altitude
Unknown
Speed
Unknown
Apparent Right ascension
Unknown
Apparent Declination
Unknown
Sunlit
N/A
Visualization observer readout
Local Sidereal Time
10:18:35
Azimuth
Unknown
Elevation
Unknown
Doppler factor
Unknown
Orbital elements
Apogee altitude
486.018 km
Perigee altitude
483.844 km
Semi-major axis
6,863.068 km
Eccentricity
0.00016
Inclination
43.002°
RAAN
196.3038°
Arg. of periapsis
268.7379°
True anomaly
91.34725°
Mean anomaly
91.3291°
Eccentric anomaly
91.33817°
Mean motion
3.81738 °/min
Orbital period
94.31 mins
BSTAR
0.00046272
Loading maneuver chart data...
Computing Atmospheric mass density...
Loading historical data...
Loading historical data...
Loading historical data...
Loading historical data...
Loading historical data...
Loading historical data...
Loading historical data...

Documentation

Showing up to 5 results
|